This is the latest recevied weather packets stored in our database for station/object DL7HMX-13. If no packets are shown the sender has not sent any weather packets the latest 10 day(s).
| Time | Temp. | Humidity | Pressure | Rain* | Wind** | Luminosity | Snow |
|---|---|---|---|---|---|---|---|
| 1777497625 | 8.33° C | 37% | 1026.7 hPa | 0 mm | - | 0 W/m² | - |
| 1777497028 | 8.33° C | 37% | 1026.4 hPa | 0 mm | - | 0 W/m² | - |
| 1777496430 | 8.89° C | 37% | 1026.2 hPa | 0 mm | - | 0 W/m² | - |
| 1777495816 | 8.89° C | 37% | 1026.2 hPa | 0 mm | - | 0 W/m² | - |
| 1777495219 | 8.89° C | 38% | 1026.2 hPa | 0 mm | - | 0 W/m² | - |
| 1777494621 | 9.44° C | 39% | 1026.1 hPa | 0 mm | - | 0 W/m² | - |
| 1777494025 | 9.44° C | 40% | 1025.9 hPa | 0 mm | - | 0 W/m² | - |
| 1777493426 | 9.44° C | 40% | 1025.7 hPa | 0 mm | - | 0 W/m² | - |
| 1777492829 | 10° C | 41% | 1025.6 hPa | 0 mm | - | 0 W/m² | - |
| 1777492231 | 10° C | 42% | 1025.4 hPa | 0 mm | - | 0 W/m² | - |
| 1777491618 | 10.56° C | 42% | 1025.2 hPa | 0 mm | - | 0 W/m² | - |
| 1777491021 | 10.56° C | 43% | 1025.1 hPa | 0 mm | - | 0 W/m² | - |
| 1777490424 | 11.11° C | 42% | 1025 hPa | 0 mm | - | 0 W/m² | - |
| 1777489826 | 11.11° C | 41% | 1024.7 hPa | 0 mm | - | 0 W/m² | - |
| 1777489229 | 11.67° C | 41% | 1024.5 hPa | 0 mm | - | 0 W/m² | - |
| 1777488631 | 12.22° C | 40% | 1024.4 hPa | 0 mm | - | 0 W/m² | - |
| 1777488018 | 12.22° C | 39% | 1024 hPa | 0 mm | - | 0 W/m² | - |
| 1777487421 | 12.78° C | 38% | 1023.7 hPa | 0 mm | - | 1 W/m² | - |
| 1777486824 | 12.78° C | 37% | 1023.6 hPa | 0 mm | - | 3 W/m² | - |
| 1777486217 | 13.33° C | 36% | 1023.4 hPa | 0 mm | - | 7 W/m² | - |
| 1777485619 | 13.89° C | 35% | 1023.2 hPa | 0 mm | - | 13 W/m² | - |
| 1777485021 | 13.89° C | 33% | 1023.1 hPa | 0 mm | - | 19 W/m² | - |
| 1777484423 | 14.44° C | 33% | 1023 hPa | 0 mm | - | 27 W/m² | - |
| 1777483826 | 14.44° C | 31% | 1022.8 hPa | 0 mm | - | 38 W/m² | - |
| 1777483230 | 15° C | 29% | 1022.7 hPa | 0 mm | - | 50 W/m² | - |
* Rain latest hour (hover to see other rain measurements)
** Current wind speed in m/s (hover to see current wind gust speed)